Stansted, United Kingdom

5:57 PM GMT on February 07, 2016 (GMT +0000)
Stansted

Weather History for EGSS - November, 2012

Change the Weather History Date:

Thursday, November 22, 2012

  Actual Average Record
Temperature  
Mean Temperature 47 °F -  
Max Temperature 55 °F 44 °F 55 °F (2012)
Min Temperature 39 °F 35 °F 26 °F (1996)
Degree Days  
Heating Degree Days 18    
Moisture  
Dew Point 45 °F    
Average Humidity 84    
Maximum Humidity 100    
Minimum Humidity 72    
Precipitation  
Precipitation 0.00 in - - ()
Sea Level Pressure  
Sea Level Pressure 29.84 in    
Wind  
Wind Speed 15 mph ()    
Max Wind Speed 28 mph    
Max Gust Speed 40 mph    
Visibility 6.1 miles    
Events Rain    
Averages and records for this station are not official NWS values.
T = Trace of Precipitation, MM = Missing Value Source: Averaged Metar Reports

Daily Weather History Graph

Daily Weather History Graph

Search for Another Location

Airport or City:

Trip Planner

Search our weather history database for the weather conditions in past years. The results will help you decide how hot, cold, wet, or windy it might be!

Date:

Astronomy

Nov. 22, 2012 Rise Set
Actual Time 7:30 AM GMT 3:59 PM GMT
Civil Twilight 6:52 AM GMT 4:37 PM GMT
Nautical Twilight 6:10 AM GMT 5:19 PM GMT
Astronomical Twilight 5:30 AM GMT 5:59 PM GMT
Moon 1:13 PM GMT (11/22) 12:56 AM GMT (11/22)
Length of Visible Light 9h 45m
Length of Day
8h 28m
Waxing Gibbous, 69% of the Moon is Illuminated
Nov 22
Waxing Gibbous
Nov 28
Full
Dec 6
Last Quarter
Dec 13
New
Dec 20
First Quarter

Hourly Weather History & Observations

Time (GMT) Temp. Windchill Dew Point Humidity Pressure Visibility Wind Dir Wind Speed Gust Speed Precip Events Conditions
12:20 AM 39.2 °F 34.2 °F 39.2 °F 100% 29.98 in 6.2 mi South 6.9 mph - N/A   Unknown
12:50 AM 41.0 °F 35.2 °F 39.2 °F 93% 29.98 in - South 9.2 mph - N/A   Clear
1:20 AM 41.0 °F 35.8 °F 39.2 °F 93% 29.98 in 6.2 mi South 8.1 mph - N/A   Partly Cloudy
1:50 AM 42.8 °F 36.6 °F 41.0 °F 93% 29.98 in 6.2 mi South 11.5 mph - N/A   Partly Cloudy
2:20 AM 42.8 °F 37.5 °F 41.0 °F 93% 29.98 in 6.2 mi South 9.2 mph - N/A   Scattered Clouds
2:50 AM 42.8 °F 37.5 °F 41.0 °F 93% 29.98 in 6.2 mi South 9.2 mph - N/A   Scattered Clouds
3:20 AM 44.6 °F 39.2 °F 42.8 °F 93% 29.95 in 6.2 mi South 10.4 mph - N/A   Mostly Cloudy
3:50 AM 44.6 °F 38.1 °F 42.8 °F 93% 29.95 in 6.2 mi South 13.8 mph - N/A   Partly Cloudy
4:20 AM 44.6 °F 38.4 °F 42.8 °F 93% 29.95 in 6.2 mi South 12.7 mph - N/A   Scattered Clouds
4:50 AM 46.4 °F 40.7 °F 44.6 °F 93% 29.95 in 6.2 mi South 12.7 mph - N/A   Mostly Cloudy
5:20 AM 46.4 °F 40.1 °F 44.6 °F 93% 29.95 in 6.2 mi South 15.0 mph - N/A   Mostly Cloudy
5:50 AM 48.2 °F - 46.4 °F 93% 29.92 in 6.2 mi South 12.7 mph - N/A   Mostly Cloudy
6:20 AM 48.2 °F - 46.4 °F 93% 29.92 in 5.0 mi South 13.8 mph - N/A   Mostly Cloudy
6:50 AM 48.2 °F - 46.4 °F 93% 29.92 in 6.2 mi South 16.1 mph - N/A   Mostly Cloudy
7:20 AM 50.0 °F - 46.4 °F 87% 29.92 in 6.2 mi South 16.1 mph - N/A   Mostly Cloudy
7:50 AM 50.0 °F - 48.2 °F 94% 29.92 in 6.2 mi South 17.3 mph - N/A   Mostly Cloudy
8:20 AM 50.0 °F - 48.2 °F 94% 29.92 in 6.2 mi South 15.0 mph - N/A   Mostly Cloudy
8:50 AM 50.0 °F - 48.2 °F 94% 29.92 in 6.2 mi South 16.1 mph - N/A   Scattered Clouds
9:20 AM 51.8 °F - 48.2 °F 88% 29.92 in 6.2 mi South 17.3 mph - N/A   Mostly Cloudy
9:50 AM 51.8 °F - 48.2 °F 88% 29.92 in 6.2 mi SSW 18.4 mph - N/A   Mostly Cloudy
10:20 AM 51.8 °F - 48.2 °F 88% 29.92 in 6.2 mi South 18.4 mph - N/A   Scattered Clouds
10:50 AM 53.6 °F - 48.2 °F 82% 29.89 in 6.2 mi South 19.6 mph - N/A   Mostly Cloudy
11:20 AM 53.6 °F - 48.2 °F 82% 29.89 in 6.2 mi South 17.3 mph - N/A   Scattered Clouds
11:50 AM 53.6 °F - 48.2 °F 82% 29.86 in 6.2 mi SSW 19.6 mph - N/A   Mostly Cloudy
12:20 PM 55.4 °F - 46.4 °F 72% 29.86 in 6.2 mi SSW 23.0 mph - N/A   Scattered Clouds
12:50 PM 55.4 °F - 46.4 °F 72% 29.83 in 6.2 mi South 23.0 mph - N/A   Scattered Clouds
1:20 PM 53.6 °F - 46.4 °F 77% 29.83 in 6.2 mi SSW 21.9 mph - N/A   Scattered Clouds
1:50 PM 53.6 °F - 44.6 °F 72% 29.83 in 6.2 mi South 26.5 mph - N/A   Mostly Cloudy
2:20 PM 53.6 °F - 44.6 °F 72% 29.80 in 6.2 mi South 21.9 mph 33.4 mph N/A   Scattered Clouds
2:50 PM 53.6 °F - 44.6 °F 72% 29.80 in 6.2 mi South 26.5 mph - N/A   Scattered Clouds
3:20 PM 51.8 °F - 44.6 °F 76% 29.80 in 6.2 mi South 21.9 mph - N/A   Mostly Cloudy
3:50 PM 51.8 °F - 44.6 °F 76% 29.77 in 6.2 mi South 24.2 mph - N/A   Scattered Clouds
4:20 PM 51.8 °F - 44.6 °F 76% 29.77 in 6.2 mi South 25.3 mph - N/A   Mostly Cloudy
4:50 PM 51.8 °F - 44.6 °F 76% 29.77 in 6.2 mi South 26.5 mph - N/A   Mostly Cloudy
5:20 PM 51.8 °F - 44.6 °F 76% 29.74 in 6.2 mi South 25.3 mph - N/A   Scattered Clouds
5:50 PM 51.8 °F - 44.6 °F 76% 29.74 in 6.2 mi South 26.5 mph - N/A   Scattered Clouds
6:20 PM 51.8 °F - 44.6 °F 76% 29.74 in 6.2 mi South 24.2 mph - N/A   Scattered Clouds
6:50 PM 51.8 °F - 44.6 °F 76% 29.71 in 6.2 mi South 24.2 mph - N/A   Mostly Cloudy
7:20 PM 51.8 °F - 44.6 °F 76% 29.71 in 6.2 mi South 23.0 mph 34.5 mph N/A   Mostly Cloudy
7:50 PM 51.8 °F - 44.6 °F 76% 29.71 in 6.2 mi South 26.5 mph - N/A   Mostly Cloudy
8:20 PM 51.8 °F - 44.6 °F 76% 29.68 in 6.2 mi South 26.5 mph - N/A   Mostly Cloudy
8:50 PM 51.8 °F - 44.6 °F 76% 29.68 in 6.2 mi South 27.6 mph 39.1 mph N/A   Mostly Cloudy
9:20 PM 51.8 °F - 44.6 °F 76% 29.68 in 6.2 mi South 27.6 mph 40.3 mph N/A   Overcast
9:50 PM 51.8 °F - 44.6 °F 76% 29.68 in 6.2 mi South 26.5 mph 38.0 mph N/A Rain Light Rain
10:20 PM 51.8 °F - 46.4 °F 82% 29.68 in 6.2 mi South 26.5 mph 38.0 mph N/A Rain Light Rain
10:50 PM 50.0 °F - 46.4 °F 87% 29.65 in 6.2 mi South 26.5 mph - N/A Rain Rain
11:20 PM 50.0 °F - 48.2 °F 94% 29.65 in 5.0 mi South 25.3 mph - N/A Rain Rain
11:50 PM 50.0 °F - 46.4 °F 87% 29.68 in 3.1 mi SW 18.4 mph - N/A Rain Heavy Rain